Weather in Ivanovka

Russia / Republic of Bashkortostan     52°45′53″N   55°43′46″E
temp.,
°C
wind,
m/s
gust,
m/s
humid.,
%
clouds,
%
prec.,
mm/h
press.,
hPa
HPBL,
m
15 may, sat
sat1523:00+19sse22430 0.0 102511
02:00+17sse22475 0.0 102514
05:00+16sse22505 0.0 102511
08:00+20sse22495 0.0 1025110
11:00+25s34375 0.0 1025486
14:00+28ssw33290 0.0 10241537
17:00+28ssw22270 0.0 10231820
20:00+25sse22390 0.0 102213
16 may, sun
sun1623:00+20sse22410 0.0 102211
02:00+18sse22440 0.0 102211
05:00+17se11480 0.0 102311
08:00+21sse22480 0.0 1023107
11:00+26s33380 0.0 1023523
14:00+29ssw23270 0.0 10222560
17:00+29s24255 0.0 10213061
20:00+25se334011 0.0 102035
17 may, mon
mon1723:00+21sse224212 0.0 102123
02:00+19nnw01523 0.0 102111
05:00+18ese115519 0.0 102211
08:00+21se24535 0.1 1022157
11:00+24ssw354586 0.1 1022481
14:00+28sw45325 0.0 10212212
17:00+29ssw342532 0.0 10203144
20:00+25w114082 0.0 101912
18 may, tue
tue1823:00+22e004193 0.0 102011
02:00+20nne114572 0.0 102011
05:00+18sse11546 0.0 102011
08:00+21ese11496 0.0 102097
11:00+26nne11395 0.0 1019608
14:00+29ne223012 0.0 10182886
17:00+29nne33285 0.0 10172631
20:00+24ne34495 0.0 101763
19 may, wed
wed1923:00+19nne4106962 0.0 1018175
02:00+17nne377634 0.0 1018116
05:00+16ne487798 0.0 1018143
08:00+19ene5106226 0.0 1019381
11:00+23e56476 0.0 1020913
14:00+25ese55395 0.0 10201609
17:00+25ese55370 0.0 10201903
20:00+21ese49560 0.0 1020228